"Pseudo-MPEC" for P11XRTA

Created 2024 Sep 5 19:22:16 UT using Find_Orb

Click here for an explanation of pseudo-MPECs

 
 Astrometry: 
     P11XRTA* C2024 09 03.54986702 22 01.122-15 20 41.10   ~93Fq 20.44wXNEOCPF51
     P11XRTA  C2024 09 03.55961802 22 01.237-15 20 45.51   ~93Fq 20.59wXNEOCPF51
     P11XRTA  C2024 09 03.56937402 22 01.350-15 20 49.96   ~93Fq 20.46wXNEOCPF51
     P11XRTA  C2024 09 03.57912802 22 01.466-15 20 54.42   ~93Fq 20.60wXNEOCPF51
     P11XRTA !C2024 09 04.13280 02 22 08.94 -15 25 07.7    ~94Aq 20.1 GVNEOCPJ04
     P11XRTA !C2024 09 04.13500 02 22 08.96 -15 25 08.3    ~94Aq 20.1 GVNEOCPJ04
     P11XRTA !C2024 09 04.13720 02 22 08.99 -15 25 09.5    ~94Aq 19.6 GVNEOCPJ04
     P11XRTA KB2024 09 05.41743 02 22 23.794-15 34 56.71   ~95B7 19.9 RZNEOCPH36
     P11XRTA KB2024 09 05.43036 02 22 23.866-15 35 02.33   ~95B7 19.9 RZNEOCPH36
     P11XRTA KB2024 09 05.44328 02 22 23.986-15 35 08.05   ~95B7 19.8 RZNEOCPH36

Station data:
(F51) Pan-STARRS 1, Haleakala  (N20.707234 W156.255910)  US/Hawaii.
   Observers J. Bulger, T. Lowe, A. Schultz, M. Willman. Measurers K.
   Chambers, S. Chastel, T. de Boer, L. Denneau, J. Fairlamb, H. Flewelling,
   M. Huber, C.-C. Lin, E. Magnier, Y. Ramanjooloo, R. Wainscoat, R. Weryk.
   1.8-m Ritchey-Chrétien + CCD.
(H36) Sandlot Observatory, Scranton  (N38.797718 W95.706550)  US/Kansas.
   Observer G. Hug. 0.56-m reflector + CCD.
(J04) ESA Optical Ground Station, Tenerife  (N28.300921 W16.511830)  Canary
   Islands (Spain).  Observer R. Kresken. Measurers M. Micheli, D. Koschny,
   E. Schwab, M. Busch, A. Knöfel. 1.0-m f/4.4 reflector + CCD.

Orbital elements:  P11XRTA
   Perihelion 2024 Jun 6.93301 +/- 117 TT = 22:23:31 (JD 2460468.43301)
Epoch 2024 Sep  5.0 TT = JDT 2460558.5   Ju: 0.0492              AutoNEOCP
M   8.94709607 +/- 23               (J2000 ecliptic)
n   0.09933823 +/- 0.0548           Peri.  228.80284 +/- 56
a   4.61733901 +/- 1.7              Node   104.73309 +/- 9
e   0.5458109 +/- 0.14              Incl.   17.97345 +/- 0.6
P   9.92174                H 16.70  G  0.15   U 10.8  SR
q 2.09714467 +/- 0.288    Q 7.13753335 +/- 1.87
From 10 observations 2024 Sept. 3-5 (45.4 hr); mean residual 0".41
Residuals in arcseconds: 
240903 F51  .03+  .08-    240904 J04  .87-  .20+    240905 H36  .03+  .09-    
240903 F51  .06+  .03-    240904 J04  .92-  .61+    240905 H36  .22+  .08+    
240903 F51  .07+  .01-    240904 J04  .83-  .43+    
240903 F51  .13+  .01-    240905 H36  .55+  .38-    

Ephemerides (geocentric):
Date (UTC) HH   RA             Dec           delta  r     elong  mag " sig PA
---- --------  ------------   ------------  ------ ------ -----  --- --------
2024 09 05 19  02 22 27.515   -15 37 42.71  1.4619 2.2406 129.3 20.3 1.28  48
2024 09 05 20  02 22 27.914   -15 38 01.77  1.4617 2.2407 129.3 20.3 1.40  49
2024 09 05 21  02 22 28.310   -15 38 20.84  1.4616 2.2409 129.4 20.3 1.52  50
2024 09 05 22  02 22 28.703   -15 38 39.90  1.4614 2.2410 129.4 20.3 1.65  50
2024 09 05 23  02 22 29.092   -15 38 58.96  1.4613 2.2411 129.4 20.3 1.78  51
2024 09 06 00  02 22 29.478   -15 39 18.02  1.4612 2.2412 129.5 20.3 1.92  52
2024 09 06 01  02 22 29.861   -15 39 37.09  1.4610 2.2414 129.5 20.3 2.05  52
2024 09 06 02  02 22 30.240   -15 39 56.15  1.4609 2.2415 129.5 20.3 2.20  53
2024 09 06 03  02 22 30.616   -15 40 15.21  1.4607 2.2416 129.5 20.3 2.34  53
2024 09 06 04  02 22 30.988   -15 40 34.27  1.4606 2.2417 129.6 20.3 2.49  54
2024 09 06 05  02 22 31.357   -15 40 53.33  1.4605 2.2419 129.6 20.3 2.65  54
2024 09 06 06  02 22 31.723   -15 41 12.39  1.4603 2.2420 129.6 20.3 2.80  54
2024 09 06 07  02 22 32.085   -15 41 31.45  1.4602 2.2421 129.7 20.3 2.97  55
2024 09 06 08  02 22 32.444   -15 41 50.51  1.4600 2.2422 129.7 20.3 3.13  55
2024 09 06 09  02 22 32.800   -15 42 09.56  1.4599 2.2424 129.7 20.3 3.30  55
2024 09 06 10  02 22 33.152   -15 42 28.62  1.4598 2.2425 129.8 20.3 3.47  56
2024 09 06 11  02 22 33.501   -15 42 47.67  1.4596 2.2426 129.8 20.3 3.65  56
2024 09 06 12  02 22 33.846   -15 43 06.73  1.4595 2.2427 129.8 20.3 3.83  56
2024 09 06 13  02 22 34.188   -15 43 25.78  1.4593 2.2429 129.8 20.3 4.01  56
2024 09 06 14  02 22 34.527   -15 43 44.83  1.4592 2.2430 129.9 20.3 4.20  57
2024 09 06 15  02 22 34.862   -15 44 03.89  1.4591 2.2431 129.9 20.3 4.39  57
2024 09 06 16  02 22 35.194   -15 44 22.94  1.4589 2.2432 129.9 20.3 4.58  57
2024 09 06 17  02 22 35.523   -15 44 41.99  1.4588 2.2434 130.0 20.3 4.78  57
2024 09 06 18  02 22 35.848   -15 45 01.04  1.4587 2.2435 130.0 20.3 4.99  57
2024 09 06 19  02 22 36.170   -15 45 20.08  1.4585 2.2436 130.0 20.3 5.19  58
2024 09 06 20  02 22 36.488   -15 45 39.13  1.4584 2.2437 130.1 20.3 5.40  58
2024 09 06 21  02 22 36.804   -15 45 58.17  1.4583 2.2439 130.1 20.3 5.61  58
2024 09 06 22  02 22 37.115   -15 46 17.22  1.4581 2.2440 130.1 20.3 5.83  58
2024 09 06 23  02 22 37.424   -15 46 36.26  1.4580 2.2441 130.1 20.3 6.05  58
2024 09 07 00  02 22 37.729   -15 46 55.30  1.4578 2.2443 130.2 20.3 6.28  59
2024 09 07 01  02 22 38.031   -15 47 14.34  1.4577 2.2444 130.2 20.3 6.50  59
2024 09 07 02  02 22 38.329   -15 47 33.38  1.4576 2.2445 130.2 20.3 6.74  59
2024 09 07 03  02 22 38.624   -15 47 52.42  1.4574 2.2446 130.3 20.3 6.97  59
2024 09 07 04  02 22 38.916   -15 48 11.45  1.4573 2.2448 130.3 20.3 7.21  59
2024 09 07 05  02 22 39.204   -15 48 30.49  1.4572 2.2449 130.3 20.3 7.45  59
2024 09 07 06  02 22 39.489   -15 48 49.52  1.4570 2.2450 130.4 20.3 7.70  60
2024 09 07 07  02 22 39.770   -15 49 08.55  1.4569 2.2451 130.4 20.3 7.95  60
2024 09 07 08  02 22 40.048   -15 49 27.58  1.4568 2.2453 130.4 20.3 8.20  60
2024 09 07 09  02 22 40.323   -15 49 46.61  1.4566 2.2454 130.4 20.3 8.46  60
2024 09 07 10  02 22 40.595   -15 50 05.63  1.4565 2.2455 130.5 20.3 8.72  60
2024 09 07 11  02 22 40.863   -15 50 24.66  1.4564 2.2456 130.5 20.3 8.98  60
2024 09 07 12  02 22 41.128   -15 50 43.68  1.4562 2.2458 130.5 20.3 9.25  60
2024 09 07 13  02 22 41.389   -15 51 02.70  1.4561 2.2459 130.6 20.3 9.53  61
2024 09 07 14  02 22 41.647   -15 51 21.72  1.4560 2.2460 130.6 20.3 9.80  61
2024 09 07 15  02 22 41.902   -15 51 40.74  1.4558 2.2461 130.6 20.3 10.1  61
2024 09 07 16  02 22 42.153   -15 51 59.75  1.4557 2.2463 130.7 20.3 10.4  61
2024 09 07 17  02 22 42.401   -15 52 18.76  1.4556 2.2464 130.7 20.3 10.6  61
2024 09 07 18  02 22 42.645   -15 52 37.78  1.4555 2.2465 130.7 20.3 10.9  61